Flag for U.S.A. Weather past 2 weeks in Austin, Texas, U.S.A.

Now
93 °F

Passing clouds.


Feels Like: 96 °F
Forecast: 72 / 90 °F
Wind: 9 mph from Southeast

Location: Camp Mabry / Austin City

Current Time: Sep 1, 2015 at 4:31:32 PM

Latest Report: Sep 1, 2015 at 3:51 PM


Visibility: 10 mi

Pressure: 29.94 "Hg

Humidity: 41%

Dew point: 66 °F

Location of AustinLocation

Historic Weather in Austin — Graph

°F

Austin temperature yesterday

Maximum temperature yesterday: 96 °F (at 3:51 PM)
Minimum temperature yesterday: 74 °F (at 6:51 AM)
Average temperature yesterday: 84 °F

Past Weeks' High & Low Weather Summary

 TemperatureHumidityPressure
High100 °F (Aug 23, 3:51 PM)97% (Aug 20, 2:58 PM)30.11 "Hg (Aug 20, 2:58 PM)
Low71 °F (Aug 29, 6:51 AM)25% (Aug 27, 4:51 PM)29.69 "Hg (Aug 18, 6:51 PM)
Average84 °F61%29.94 "Hg
* Reported Aug 17 2:51 PM — Sep 1 2:51 PM, Austin, Weather by CustomWeather, © 2015

Note: Actual official high and low records may vary slightly from our data, if they occured in-between our weather recording intervals... More about our weather records

Advertising

Austin weather history for previous 24 hours

 ConditionsComfort  
Time TempWeatherWind HumidityBarometerVisibility
2:51 PM
Tue, Sep 1
91 °FSunny.5 mph49%29.96 "Hg10 mi
1:51 PM85 °FScattered clouds.8 mph61%29.99 "Hg10 mi
12:51 PM87 °FScattered clouds.8 mph53%29.99 "Hg10 mi
11:51 AM86 °FPassing clouds.No wind61%30.01 "Hg10 mi
11:00 AM84 °FBroken clouds.3 mph65%30.06 "Hg10 mi
9:51 AM78 °FMostly cloudy.5 mph82%30.03 "Hg10 mi
8:51 AM77 °FLow clouds.6 mph85%30.02 "Hg10 mi
7:51 AM75 °FLow clouds.No wind85%30.00 "Hg10 mi
6:58 AM75 °FLow clouds.3 mph88%30.01 "Hg10 mi
5:51 AM76 °FOvercast.No wind85%29.96 "Hg10 mi
4:51 AM75 °FMostly cloudy.No wind88%29.96 "Hg10 mi
3:51 AM75 °FPassing clouds.No wind88%29.98 "Hg10 mi
2:51 AM75 °FClear.3 mph88%29.99 "Hg10 mi
1:51 AM76 °FPassing clouds.5 mph82%30.00 "Hg10 mi
12:51 AM78 °FClear.6 mph76%30.00 "Hg10 mi
11:51 PM
Mon, Aug 31
79 °FClear.5 mph74%29.99 "Hg10 mi
9:51 PM81 °FClear.8 mph67%29.96 "Hg10 mi
8:51 PM83 °FSunny.12 mph61%29.93 "Hg10 mi
7:51 PM87 °FSunny.13 mph50%29.92 "Hg10 mi
6:51 PM89 °FSunny.13 mph50%29.91 "Hg10 mi
5:51 PM91 °FPassing clouds.10 mph44%29.90 "Hg10 mi
4:51 PM96 °FPassing clouds.No wind31%29.90 "Hg10 mi
Weather by CustomWeather, © 2015

See weather overviewHow to use our weather pages